シュワルツ彗星

C/2014 B1 ( Schwartz )

English version
Home page
Updated on July 29, 2021

---------------------------------------------------------------------

・ プロフィール

発見日 2014年1月28日
発見光度 19.9等
発見者 Michael Schwartz (Tenagra Observatory near Nogales, AZ, U.S.A.)

・ 写真集

・ 軌道要素

Epoch 2017 Sept. 4.0 TT = JDT 2458000.5
T 2017 Sept. 10.53356 TT                                Rudenko
q   9.5565930            (2000.0)            P               Q
z  -0.0003925      Peri.  345.84156     -0.85029249     -0.50400330
 +/-0.0000005      Node   161.39570     +0.51719285     -0.85353171
e   1.0037507      Incl.   28.37225     +0.09754095     +0.13215252
From 1260 observations 2014 Jan. 28-2021 May 1, mean residual 0".6.

・ 光度変化

        m1 = -13.5 + 5 logΔ + 25.0 log r

---------------------------------------------------------------------

軌道要素はM.P.E.C. 2021-L04に掲載されたものです。
光度グラフはComet for Windowsで作成したものです。

---------------------------------------------------------------------

Copyright(C) Seiichi Yoshida (comet@aerith.net). All rights reserved.